Temp
-7 -7 -7 -8 -8 -9 -9 -9 -8 -8 -10 -9 -9 -9 -9 -9 -10 -10 -10 -10 -10 -10 -9 -9 -10 -9 -9 -9 -9 -9 -9 -10 -10 -9 -10 -11 -10 -11 -11 -11 -12 -12 -11 -11
-6 -7 -8 -8 -7 -8 -8 -9 -8 -8 -10 -9 -9 -10 -9 -9 -9 -10 -10 -10 -10 -10 -9 -9 -10 -10 -10 -10 -9 -9 -8 -9 -10 -10 -10 -10 -11 -11 -12 -12 -12 -11 -11 -12
-7 -8 -7 -8 -8 -8 -8 -8 -8 -8 -9 -9 -9 -10 -10 -10 -9 -9 -9 -10 -10 -10 -9 -10 -10 -10 -10 -10 -9 -9 -8 -9 -10 -10 -10 -11 -11 -11 -12 -11 -11 -12 -12 -12
-7 -8 -7 -7 -7 -7 -8 -8 -8 -9 -9 -9 -10 -9 -9 -9 -10 -9 -10 -10 -9 -9 -10 -10 -10 -10 -10 -10 -9 -9 -9 -9 -10 -10 -10 -11 -11 -11 -11 -12 -12 -12 -12 -12
-8 -8 -8 -8 -8 -8 -7 -8 -8 -9 -9 -9 -10 -9 -8 -9 -9 -9 -10 -10 -9 -9 -9 -9 -10 -10 -10 -9 -9 -9 -9 -9 -10 -10 -10 -10 -11 -12 -12 -12 -12 -12 -11 -11
-8 -8 -7 -8 -9 -8 -8 -8 -8 -8 -8 -8 -8 -9 -8 -8 -8 -9 -9 -10 -10 -9 -10 -10 -10 -10 -10 -9 -9 -9 -10 -10 -11 -11 -11 -11 -11 -12 -12 -12 -11 -11 -11 -11
-8 -8 -8 -8 -7 -8 -8 -8 -8 -8 -8 -7 -9 -9 -9 -9 -9 -9 -9 -10 -9 -10 -10 -10 -10 -10 -10 -9 -10 -10 -10 -11 -11 -12 -11 -11 -12 -11 -11 -11 -11 -11 -11 -11
-8 -8 -9 -8 -8 -8 -8 -9 -9 -8 -8 -8 -10 -9 -8 -9 -8 -8 -9 -10 -10 -10 -10 -10 -10 -10 -10 -10 -10 -10 -10 -11 -11 -11 -11 -11 -11 -11 -11 -11 -11 -11 -11 -11
-9 -8 -9 -9 -10 -10 -10 -9 -9 -10 -9 -8 -9 -9 -8 -8 -9 -8 -9 -9 -10 -10 -10 -10 -10 -10 -10 -10 -10 -10 -10 -11 -11 -11 -11 -11 -11 -11 -11 -11 -11 -11 -11 -12
-10 -9 -9 -10 -10 -10 -11 -11 -11 -10 -9 -9 -8 -9 -8 -8 -8 -9 -10 -10 -10 -10 -11 -11 -11 -11 -11 -10 -10 -10 -11 -11 -11 -11 -11 -11 -11 -11 -11 -11 -11 -11 -12 -12
-11 -11 -10 -10 -10 -10 -11 -10 -12 -11 -10 -10 -8 -9 -10 -10 -10 -10 -11 -11 -11 -11 -10 -10 -11 -10 -10 -10 -10 -10 -11 -11 -11 -11 -11 -11 -11 -11 -11 -11 -11 -12 -12 -12
-10 -12 -10 -10 -10 -11 -11 -11 -11 -12 -11 -10 -9 -8 -10 -10 -10 -10 -10 -10 -10 -10 -11 -10 -10 -10 -10 -9 -10 -11 -11 -12 -12 -11 -11 -11 -11 -11 -11 -11 -12 -12 -12 -12
-13 -11 -12 -10 -11 -11 -11 -11 -11 -11 -12 -11 -11 -9 -10 -10 -10 -10 -9 -9 -9 -10 -10 -10 -10 -11 -12 -10 -10 -11 -11 -12 -11 -11 -11 -11 -11 -11 -11 -12 -12 -12 -12 -13
-13 -12 -10 -9 -10 -11 -12 -12 -11 -10 -12 -11 -10 -10 -10 -10 -10 -10 -9 -9 -10 -10 -10 -10 -11 -11 -12 -11 -11 -11 -11 -11 -11 -11 -11 -11 -11 -12 -12 -12 -12 -12 -13 -13
-13 -11 -11 -10 -10 -11 -11 -12 -11 -11 -12 -11 -10 -11 -10 -10 -11 -10 -10 -10 -10 -10 -10 -11 -12 -11 -11 -12 -11 -11 -11 -11 -11 -11 -11 -11 -12 -12 -12 -12 -12 -12 -13 -13
-13 -12 -12 -11 -10 -11 -12 -12 -12 -12 -11 -11 -11 -10 -10 -10 -10 -10 -10 -10 -10 -11 -11 -11 -12 -12 -12 -11 -11 -11 -11 -11 -11 -11 -11 -12 -12 -12 -12 -12 -12 -12 -12 -13
-13 -12 -13 -12 -11 -13 -12 -11 -11 -12 -11 -11 -11 -10 -11 -11 -10 -10 -10 -10 -11 -11 -12 -12 -12 -12 -11 -11 -11 -11 -11 -11 -11 -12 -12 -12 -12 -13 -12 -13 -13 -12 -13 -14
-13 -12 -12 -12 -13 -13 -9 -10 -11 -12 -11 -11 -11 -11 -11 -11 -11 -10 -10 -11 -11 -11 -11 -12 -12 -12 -11 -11 -11 -11 -11 -11 -12 -12 -12 -12 -13 -13 -13 -13 -13 -13 -14 -15
-12 -13 -13 -13 -13 -11 -10 -9 -10 -12 -11 -11 -11 -11 -10 -11 -11 -11 -12 -11 -12 -12 -12 -12 -11 -11 -11 -11 -11 -11 -12 -12 -12 -12 -13 -13 -13 -13 -13 -13 -13 -14 -15 -15
-13 -13 -14 -13 -13 -12 -10 -11 -11 -11 -11 -11 -12 -12 -11 -11 -11 -12 -11 -11 -12 -12 -12 -12 -12 -12 -11 -11 -11 -12 -12 -12 -12 -13 -13 -13 -13 -13 -14 -14 -14 -14 -14 -14
-14 -13 -14 -13 -13 -12 -11 -11 -12 -12 -10 -12 -12 -12 -12 -12 -11 -11 -11 -11 -12 -12 -12 -12 -12 -11 -12 -12 -12 -12 -12 -12 -12 -13 -13 -13 -14 -13 -14 -14 -14 -15 -15 -15
-14 -14 -14 -13 -13 -12 -12 -11 -12 -11 -12 -12 -12 -12 -12 -12 -12 -12 -12 -12 -12 -12 -12 -12 -12 -12 -12 -12 -12 -12 -12 -12 -13 -13 -14 -14 -14 -14 -14 -14 -14 -15 -15 -15
-16 -15 -14 -13 -11 -12 -12 -13 -12 -11 -12 -12 -12 -12 -12 -12 -12 -12 -12 -13 -12 -12 -13 -12 -12 -12 -12 -12 -12 -12 -12 -13 -13 -14 -14 -14 -14 -14 -14 -15 -15 -15 -15 -15
-15 -15 -15 -14 -13 -14 -14 -13 -12 -12 -12 -13 -13 -13 -12 -12 -12 -12 -12 -12 -12 -12 -13 -12 -12 -12 -12 -12 -12 -12 -13 -13 -14 -14 -14 -14 -14 -14 -15 -15 -15 -16 -16 -15
-16 -15 -14 -14 -12 -13 -14 -14 -13 -13 -12 -13 -13 -14 -13 -12 -12 -12 -13 -13 -13 -14 -13 -12 -13 -13 -13 -12 -13 -13 -13 -13 -14 -14 -14 -14 -15 -15 -15 -15 -15 -16 -16 -16
-16 -16 -15 -14 -13 -14 -14 -14 -13 -13 -13 -13 -13 -13 -13 -13 -13 -13 -13 -13 -14 -14 -13 -13 -13 -13 -13 -13 -13 -13 -13 -14 -14 -14 -14 -14 -15 -15 -15 -15 -16 -16 -16 -16
Height
5886 5888 5892 5893 5895 5896 5898 5900 5903 5901 5901 5901 5904 5906 5907 5907 5906 5904 5906 5907 5908 5907 5909 5909 5907 5904 5906 5903 5900 5899 5898 5896 5890 5889 5881 5878 5876 5871 5870 5866 5862 5855 5850 5844
5882 5887 5888 5889 5890 5892 5892 5894 5899 5899 5898 5899 5898 5902 5907 5906 5903 5903 5903 5906 5908 5908 5909 5908 5906 5901 5901 5901 5898 5896 5893 5890 5887 5884 5879 5876 5873 5869 5863 5857 5852 5846 5842 5836
5879 5881 5882 5884 5885 5887 5890 5891 5896 5896 5895 5898 5898 5900 5903 5900 5896 5898 5899 5902 5905 5907 5907 5906 5902 5902 5901 5900 5898 5893 5889 5885 5883 5878 5875 5868 5864 5859 5855 5850 5845 5841 5835 5829
5874 5874 5877 5879 5882 5883 5885 5888 5891 5892 5892 5894 5895 5896 5897 5894 5896 5895 5896 5899 5902 5902 5902 5902 5903 5902 5900 5896 5893 5888 5884 5880 5876 5870 5862 5855 5851 5849 5847 5843 5839 5834 5826 5819
5872 5871 5872 5875 5880 5880 5883 5883 5885 5888 5888 5889 5891 5892 5897 5893 5891 5891 5896 5899 5901 5903 5902 5902 5902 5899 5896 5890 5887 5883 5878 5873 5866 5860 5855 5852 5848 5845 5839 5835 5830 5824 5817 5808
5864 5864 5865 5870 5874 5876 5878 5879 5880 5881 5883 5882 5890 5888 5889 5892 5890 5889 5891 5894 5896 5898 5898 5897 5896 5893 5888 5885 5881 5876 5871 5866 5861 5857 5851 5846 5842 5837 5833 5827 5821 5814 5807 5799
5860 5860 5863 5866 5867 5869 5869 5871 5874 5876 5877 5880 5885 5882 5881 5886 5882 5883 5887 5889 5891 5892 5892 5891 5888 5885 5881 5877 5871 5866 5862 5859 5854 5848 5844 5839 5835 5830 5825 5819 5811 5803 5796 5789
5850 5854 5859 5863 5862 5865 5865 5866 5869 5870 5872 5875 5874 5872 5876 5878 5877 5878 5880 5883 5886 5887 5887 5884 5880 5877 5872 5866 5862 5858 5854 5849 5844 5840 5836 5832 5828 5823 5817 5811 5804 5797 5789 5781
5844 5848 5852 5852 5856 5858 5860 5860 5866 5863 5865 5865 5868 5867 5869 5873 5874 5875 5876 5878 5880 5882 5880 5878 5874 5871 5868 5864 5859 5853 5848 5845 5841 5836 5832 5827 5822 5816 5811 5804 5797 5790 5783 5774
5836 5837 5843 5848 5846 5849 5850 5859 5858 5858 5860 5860 5863 5862 5863 5865 5867 5867 5870 5872 5874 5874 5872 5870 5868 5865 5862 5858 5853 5848 5843 5838 5835 5830 5825 5820 5814 5810 5805 5799 5791 5784 5775 5767
5828 5828 5838 5838 5836 5844 5846 5847 5851 5853 5854 5855 5856 5858 5861 5862 5863 5864 5865 5866 5868 5868 5867 5865 5862 5860 5857 5852 5847 5842 5836 5832 5829 5824 5819 5814 5809 5804 5798 5791 5784 5775 5767 5759
5819 5820 5825 5830 5835 5837 5837 5840 5844 5846 5849 5850 5850 5852 5853 5857 5857 5858 5858 5859 5862 5861 5861 5860 5857 5854 5850 5848 5841 5835 5830 5827 5822 5817 5813 5808 5802 5797 5791 5783 5775 5767 5759 5751
5810 5809 5813 5821 5825 5826 5826 5832 5837 5838 5843 5841 5844 5848 5849 5848 5849 5848 5849 5853 5854 5854 5856 5852 5851 5845 5842 5842 5835 5830 5824 5821 5817 5812 5807 5801 5795 5790 5783 5776 5768 5760 5751 5744
5800 5804 5806 5811 5820 5824 5824 5827 5830 5832 5833 5837 5836 5842 5844 5845 5844 5843 5843 5845 5847 5848 5848 5847 5844 5840 5837 5834 5830 5824 5818 5815 5810 5805 5800 5794 5788 5782 5776 5768 5760 5752 5744 5736
5790 5795 5796 5802 5809 5814 5818 5820 5822 5824 5828 5829 5833 5833 5837 5839 5838 5836 5839 5839 5840 5839 5840 5840 5838 5835 5832 5828 5823 5817 5812 5806 5803 5798 5793 5787 5781 5775 5768 5761 5752 5744 5735 5726
5785 5786 5786 5791 5798 5803 5807 5812 5814 5816 5818 5820 5824 5826 5829 5829 5829 5830 5832 5833 5833 5833 5833 5834 5830 5829 5826 5822 5815 5809 5803 5801 5797 5792 5786 5780 5774 5768 5760 5752 5744 5735 5726 5717
5775 5778 5779 5781 5784 5792 5794 5799 5805 5809 5812 5816 5816 5820 5820 5822 5824 5825 5826 5827 5828 5828 5827 5825 5823 5822 5819 5814 5808 5803 5799 5796 5790 5785 5779 5773 5766 5760 5752 5745 5737 5727 5716 5708
5765 5768 5771 5774 5775 5775 5789 5794 5798 5802 5806 5807 5807 5809 5811 5814 5817 5819 5822 5823 5823 5822 5821 5820 5817 5814 5811 5805 5801 5797 5793 5788 5783 5778 5772 5765 5758 5752 5745 5738 5729 5720 5710 5704
5756 5757 5758 5761 5767 5770 5777 5784 5788 5791 5796 5799 5802 5801 5805 5809 5812 5813 5816 5817 5818 5816 5815 5812 5810 5805 5802 5798 5795 5791 5786 5782 5777 5770 5764 5757 5751 5745 5738 5731 5723 5715 5707 5701
5741 5744 5746 5751 5754 5758 5770 5776 5776 5782 5782 5789 5793 5793 5797 5801 5803 5806 5808 5809 5809 5808 5806 5804 5800 5797 5793 5791 5788 5784 5780 5775 5769 5763 5757 5751 5745 5739 5732 5725 5718 5711 5704 5698
5723 5728 5731 5739 5742 5749 5757 5765 5768 5771 5776 5780 5785 5788 5789 5793 5798 5798 5799 5799 5800 5800 5799 5795 5792 5789 5787 5784 5782 5778 5773 5768 5762 5756 5751 5746 5740 5733 5725 5719 5712 5706 5699 5692
5708 5715 5721 5726 5731 5736 5747 5752 5759 5766 5766 5772 5777 5780 5782 5784 5787 5791 5789 5790 5790 5792 5791 5788 5784 5782 5781 5778 5775 5771 5767 5762 5756 5750 5745 5740 5733 5726 5718 5712 5706 5700 5693 5686
5687 5698 5709 5714 5723 5730 5736 5744 5753 5757 5762 5762 5767 5771 5775 5777 5779 5781 5779 5778 5780 5783 5783 5782 5778 5776 5775 5773 5769 5766 5761 5755 5750 5745 5739 5733 5726 5719 5712 5706 5701 5694 5687 5680
5678 5686 5692 5701 5710 5720 5726 5734 5738 5744 5752 5756 5756 5762 5764 5767 5766 5768 5770 5767 5772 5774 5776 5774 5773 5771 5770 5768 5764 5759 5754 5749 5744 5739 5733 5727 5720 5713 5706 5701 5695 5688 5681 5674
5668 5674 5681 5689 5698 5709 5716 5720 5726 5732 5736 5743 5746 5750 5754 5755 5758 5760 5764 5764 5764 5766 5767 5766 5767 5766 5765 5762 5758 5753 5748 5742 5737 5732 5727 5721 5715 5708 5702 5696 5689 5681 5675 5669
5654 5661 5670 5677 5689 5700 5710 5714 5717 5721 5730 5725 5736 5742 5744 5747 5752 5754 5755 5755 5756 5758 5760 5761 5762 5761 5758 5755 5751 5746 5741 5736 5731 5726 5720 5714 5708 5703 5697 5690 5682 5675 5669 5663
Wind_Speed
21 20 13 14 15 17 18 21 19 23 5 5 1 7 7 12 10 14 10 11 21 25 29 24 25 26 31 34 36 33 31 32 31 34 28 28 34 33 38 42 42 40 37 41
24 15 17 18 18 20 23 25 26 16 8 11 12 11 13 16 21 19 16 16 20 25 29 22 27 31 32 34 37 35 33 32 32 31 30 31 34 36 40 40 36 37 40 44
22 20 23 22 22 20 22 24 19 20 16 15 17 14 13 18 22 24 26 21 21 27 28 29 33 35 36 39 40 29 28 28 28 29 33 34 35 37 37 32 35 38 43 46
20 25 25 26 24 25 24 26 19 25 24 22 26 22 20 20 15 16 25 27 27 28 30 32 33 37 36 43 40 29 28 29 29 33 35 37 39 37 30 33 36 41 44 47
14 21 24 24 21 25 25 28 22 23 33 29 27 27 18 20 24 20 18 22 25 28 31 32 34 34 41 36 29 28 29 32 34 38 37 36 31 29 32 35 39 44 46 50
23 24 27 22 23 25 27 28 25 28 30 33 27 32 29 28 29 30 26 23 23 25 26 29 32 38 35 27 28 30 32 33 33 33 32 27 28 30 33 38 43 45 48 52
24 25 24 23 23 24 26 26 25 27 27 25 24 34 37 28 37 37 31 28 24 21 26 27 36 37 35 30 34 35 35 35 35 33 31 30 31 35 38 43 47 49 53 54
31 30 23 20 23 22 24 22 21 23 20 17 24 30 28 22 28 29 34 36 27 27 30 35 37 39 33 35 39 38 38 39 38 36 37 35 35 38 41 45 47 51 54 55
29 30 24 26 21 25 23 24 18 24 23 26 27 29 26 21 24 24 24 23 26 32 37 42 40 37 34 40 40 40 39 37 36 33 35 36 37 39 43 47 49 53 54 53
25 33 30 25 31 30 27 17 22 27 27 27 26 29 29 26 22 16 20 25 29 32 33 35 35 34 32 38 37 39 39 35 34 35 37 38 38 41 44 47 51 55 54 50
22 30 26 29 38 33 31 29 26 26 28 27 28 29 28 27 26 21 21 32 35 35 35 33 32 32 33 32 35 41 39 35 34 38 38 40 39 42 46 50 53 54 50 50
25 17 28 32 31 33 34 35 30 29 25 33 32 30 35 35 36 35 35 35 33 41 31 30 35 42 44 29 41 38 36 35 39 43 41 38 38 43 48 51 54 50 51 47
27 29 26 30 35 41 40 36 33 24 30 31 33 29 29 32 38 44 45 41 36 38 34 36 38 45 17 34 36 37 35 34 38 35 33 36 40 46 49 50 48 50 49 46
39 36 38 38 28 37 40 37 38 32 36 31 33 32 31 32 36 40 41 37 37 43 40 34 34 16 33 37 40 39 36 38 35 34 36 40 44 48 48 46 47 49 47 47
47 43 42 38 35 35 44 41 39 33 33 31 25 33 34 33 39 43 41 41 41 43 36 34 32 32 38 45 43 38 35 34 33 36 39 42 46 45 45 45 49 48 48 47
51 50 49 45 36 34 50 45 43 43 41 37 29 29 31 34 35 34 33 36 38 41 41 36 36 31 38 42 41 36 33 32 34 38 42 42 43 43 43 46 45 44 47 48
56 51 53 50 41 40 41 49 50 47 45 37 39 34 35 34 31 30 30 30 30 33 36 33 32 39 47 44 36 31 31 34 37 39 40 41 41 41 42 41 42 49 47 41
61 59 54 54 45 45 43 38 46 50 44 42 43 37 32 36 33 29 27 26 31 34 39 42 46 49 45 37 32 31 33 34 37 40 40 40 38 40 39 41 45 45 38 32
61 64 61 61 56 51 45 44 40 47 45 43 40 42 39 30 32 30 28 30 37 37 40 41 45 38 42 34 32 31 33 36 38 41 39 37 38 38 38 38 39 33 35 31
59 67 63 64 60 58 47 47 48 43 47 44 47 45 44 41 37 34 36 37 39 38 41 45 43 47 37 31 31 32 35 37 41 39 36 36 37 37 38 36 34 32 32 34
60 64 70 68 65 63 54 47 44 46 45 45 47 44 45 44 42 46 47 38 41 39 38 42 43 32 28 27 30 33 36 39 40 36 35 36 38 38 37 37 37 35 36 37
51 60 65 67 69 67 59 53 48 38 45 44 45 47 49 49 50 50 50 45 35 38 35 35 31 27 26 27 31 35 37 40 37 34 34 37 40 39 37 37 36 35 35 37
46 51 60 68 61 63 57 51 45 33 43 44 46 45 46 49 43 44 51 32 32 39 38 38 29 26 28 29 32 36 38 39 35 33 35 39 39 37 34 34 34 34 36 39
45 47 58 63 62 58 58 50 48 52 46 50 51 44 43 44 53 47 50 32 30 30 31 29 27 26 28 30 34 37 38 38 35 34 37 37 36 34 33 34 35 36 37 39
43 49 55 61 61 55 53 52 46 39 43 49 52 49 47 36 43 34 35 42 30 27 29 26 26 27 29 32 36 37 38 37 34 35 35 36 33 33 33 36 37 38 39 40
49 51 56 60 53 51 46 47 45 48 45 19 37 45 40 50 41 35 35 28 21 24 26 26 27 29 31 34 37 38 36 33 31 34 34 34 32 32 35 37 37 36 36 36
Wind_Direction
235 235 232 226 216 211 207 213 191 184 170 245 30 310 312 281 244 260 253 244 293 309 323 335 325 329 328 323 323 318 312 307 307 306 319 318 316 311 309 307 308 309 312 316
233 230 227 224 217 217 216 220 215 198 180 250 229 266 272 268 290 251 261 278 289 297 309 331 319 319 330 335 319 312 309 310 305 311 309 306 305 302 304 309 309 316 316 315
229 215 222 223 217 216 228 233 231 198 188 208 230 218 267 278 282 262 266 268 274 284 301 308 315 308 305 309 315 306 305 303 301 306 306 305 305 305 308 309 312 312 314 312
226 225 230 232 233 224 223 236 232 200 203 203 223 221 223 243 255 284 268 268 282 291 298 298 298 299 303 301 305 306 307 307 305 309 314 319 316 313 308 308 309 311 313 315
223 225 234 238 235 237 232 232 237 224 214 219 218 240 241 233 248 248 259 271 276 289 299 300 291 294 297 302 302 309 311 314 316 322 321 314 307 306 311 310 311 313 316 319
225 225 226 222 232 237 238 232 232 233 227 240 233 248 259 263 267 261 259 255 268 280 293 291 284 298 306 306 310 314 317 315 315 315 314 308 310 312 310 314 314 315 318 320
234 239 243 242 235 227 229 232 237 241 235 245 242 239 248 241 248 255 255 256 272 280 284 280 292 302 310 317 320 321 320 317 317 315 315 310 311 313 314 315 316 319 319 320
231 230 238 249 250 243 245 242 241 252 247 241 225 241 241 233 240 249 246 253 270 271 278 286 297 305 308 323 321 321 320 320 321 321 313 309 308 311 312 314 317 319 319 318
239 235 233 228 238 238 238 243 254 256 248 244 231 247 251 241 244 249 249 264 279 282 284 288 292 301 300 311 316 316 316 317 314 316 312 307 304 307 311 313 317 318 318 318
237 237 229 229 229 230 226 242 254 254 247 249 246 245 252 259 267 268 281 280 275 274 282 283 289 293 297 305 313 315 312 311 309 309 312 308 303 304 307 310 313 317 317 318
234 247 219 224 230 227 229 226 237 259 242 242 245 240 245 262 266 268 269 266 265 271 269 274 285 283 287 303 312 311 308 307 309 310 304 305 302 303 307 310 313 316 316 319
225 257 238 231 233 227 229 236 227 251 263 247 248 244 241 243 255 262 266 267 268 278 280 302 306 303 287 297 306 308 304 301 309 309 300 302 302 306 309 312 315 316 317 316
227 227 250 226 223 222 226 236 240 232 261 254 252 244 248 253 253 260 268 273 274 281 294 299 305 313 301 312 308 302 302 306 305 302 303 305 307 310 312 314 316 317 316 314
235 235 242 233 231 225 222 233 241 247 243 260 258 247 245 255 260 265 272 278 281 283 288 295 305 299 309 315 310 305 302 302 302 303 306 310 311 313 315 316 316 319 316 315
232 239 238 242 226 219 222 228 233 236 250 249 260 254 254 254 257 264 269 277 283 285 293 303 299 303 296 301 306 303 305 307 306 307 310 312 313 315 316 317 318 318 316 314
233 236 237 241 234 226 215 221 228 233 239 246 249 246 242 245 252 261 269 275 282 287 292 300 296 296 299 302 308 308 311 309 308 311 312 314 315 317 318 319 321 321 321 316
230 241 230 233 231 246 239 222 229 232 239 248 257 253 251 248 248 255 267 278 289 290 291 293 294 292 300 306 307 308 309 310 312 314 314 314 316 319 321 323 325 326 322 320
231 233 240 233 224 224 239 229 227 234 239 242 247 238 248 245 251 262 270 296 287 283 288 287 290 291 303 304 305 307 309 312 313 312 314 316 319 322 323 325 331 334 332 332
232 230 237 236 232 240 244 241 230 228 237 242 245 250 250 261 254 254 273 277 283 278 282 281 289 293 309 303 305 307 308 310 313 315 315 318 322 323 322 329 336 339 340 334
231 231 233 235 237 242 251 248 246 235 232 236 240 252 256 260 258 259 270 275 271 278 283 292 296 297 297 300 302 304 308 312 316 315 316 318 321 322 321 323 327 322 325 329
229 230 232 235 239 243 246 245 246 238 239 235 236 244 253 255 258 262 268 273 276 278 287 293 293 289 291 295 300 307 312 314 316 314 315 318 322 321 316 319 320 319 317 320
229 232 229 234 235 239 242 246 246 246 234 235 236 240 247 254 259 268 268 268 267 268 283 294 289 289 292 297 304 312 313 316 312 311 314 317 320 319 317 317 317 315 319 318
231 227 229 234 236 238 239 245 247 246 239 237 239 242 247 252 261 263 266 247 248 265 269 293 285 288 291 298 306 310 314 315 310 310 313 317 320 319 318 317 317 314 315 315
230 224 225 228 231 232 237 243 244 245 246 244 238 242 247 250 254 263 273 251 258 278 279 284 282 285 287 298 304 309 314 314 309 309 314 321 320 322 321 319 316 314 314 317
228 225 222 229 232 229 231 238 242 246 244 241 233 231 241 260 260 262 273 269 269 272 278 276 277 280 287 297 305 310 313 310 308 311 317 319 320 323 322 320 316 313 315 318
227 225 220 224 230 229 234 234 244 245 256 233 229 229 252 239 252 262 265 279 273 274 272 272 275 281 289 298 305 310 313 311 312 317 318 319 320 323 324 323 323 322 321 322